Weather History for Carroll, IA

Change the Weather History Date:

Wednesday, December 14, 2011

  Actual Average Record
Temperature  
Mean Temperature 45 °F -  
Max Temperature 51 °F 31 °F 57 °F (1998)
Min Temperature 39 °F 14 °F -18 °F (1972)
Degree Days  
Heating Degree Days 20    
Moisture  
Dew Point 40 °F    
Average Humidity 87    
Maximum Humidity 93    
Minimum Humidity 81    
Precipitation  
Precipitation 0.23 in - - ()
Sea Level Pressure  
Sea Level Pressure 29.88 in    
Wind  
Wind Speed 6 mph (South)    
Max Wind Speed 25 mph    
Max Gust Speed 29 mph    
Visibility 5 miles    
Events Fog , Rain    
Averages and records for this station are not official NWS values.
T = Trace of Precipitation, MM = Missing Value Source: NWS Daily Summary

Daily Weather History Graph

Daily Weather History Graph

Search for Another Location

Airport:

Trip Planner

Search our weather history database for the weather conditions in past years. The results will help you decide how hot, cold, wet, or windy it might be!

Date:

Astronomy

Dec. 14, 2011 Rise Set
Actual Time 7:39 AM CST 4:48 PM CST
Civil Twilight 7:07 AM CST 5:19 PM CST
Nautical Twilight 6:32 AM CST 5:54 PM CST
Astronomical Twilight 5:58 AM CST 6:28 PM CST
Moon 9:12 PM CST (12/14) 10:21 AM CST (12/14)
Length of Visible Light 10h 12m
Length of Day
9h 08m
Waning Gibbous, 83% of the Moon is Illuminated
Dec 14
Waning Gibbous
Dec 17
Last Quarter
Dec 24
New
Jan 1
First Quarter
Jan 9
Full

Hourly Weather History & Observations

Time (CST) Temp. Windchill Dew Point Humidity Pressure Visibility Wind Dir Wind Speed Gust Speed Precip Events Conditions
12:15 AM 39.2 °F 37.0 °F 35.6 °F 87% 30.04 in 5.0 mi South 3.5 mph - 0.02 in Rain Light Rain
12:35 AM 39.2 °F - 35.6 °F 87% 30.03 in 4.0 mi Calm Calm - 0.06 in Rain Rain
12:55 AM 39.2 °F 35.9 °F 35.6 °F 87% 30.01 in 3.0 mi SE 4.6 mph - 0.09 in Rain Rain
1:15 AM 39.2 °F 37.0 °F 35.6 °F 87% 29.97 in 3.0 mi East 3.5 mph - 0.01 in Rain Light Rain
1:35 AM 39.2 °F - 35.6 °F 87% 29.99 in 3.0 mi Calm Calm - 0.01 in Rain Light Rain
1:55 AM 39.2 °F - 35.6 °F 87% 29.98 in 2.5 mi Calm Calm - 0.02 in Rain Rain
2:15 AM 39.2 °F 34.2 °F 35.6 °F 87% 29.95 in 2.5 mi ESE 6.9 mph - N/A   Light Drizzle
2:35 AM 39.2 °F 32.0 °F 35.6 °F 87% 29.92 in 2.5 mi SE 11.5 mph - N/A   Overcast
2:55 AM 39.2 °F 37.0 °F 35.6 °F 87% 29.98 in 5.0 mi WSW 3.5 mph - N/A   Light Drizzle
3:15 AM 39.2 °F - 35.6 °F 87% 29.93 in 2.5 mi Calm Calm - N/A   Drizzle
3:35 AM 39.2 °F - 37.4 °F 93% 29.94 in 3.0 mi Calm Calm - N/A Rain Rain
3:55 AM 39.2 °F 37.0 °F 35.6 °F 87% 29.97 in 3.0 mi WSW 3.5 mph - N/A   Overcast
4:15 AM 39.2 °F - 35.6 °F 87% 29.93 in 2.5 mi Calm Calm - N/A   Overcast
4:35 AM 39.2 °F - 35.6 °F 87% 29.93 in 1.5 mi Calm Calm - N/A   Overcast
4:55 AM 39.2 °F 37.0 °F 35.6 °F 87% 29.94 in 2.5 mi South 3.5 mph - N/A Rain Light Rain
5:15 AM 39.2 °F - 35.6 °F 87% 29.91 in 1.5 mi Calm Calm - 0.01 in Rain Rain
5:35 AM 39.2 °F 33.6 °F 37.4 °F 93% 29.87 in 1.8 mi ESE 8.1 mph - 0.02 in Rain Light Rain
6:15 AM 39.2 °F 35.9 °F 35.6 °F 87% 29.90 in 3.0 mi SSE 4.6 mph - N/A   Overcast
6:35 AM 39.2 °F 34.2 °F 35.6 °F 87% 29.89 in 3.0 mi SE 6.9 mph - 0.01 in Rain Rain
6:55 AM 41.0 °F 36.4 °F 37.4 °F 87% 29.87 in 2.5 mi SE 6.9 mph - 0.02 in Rain Rain
7:15 AM 41.0 °F 34.7 °F 37.4 °F 87% 29.82 in 3.0 mi ESE 10.4 mph - 0.02 in Rain Light Rain
7:35 AM 41.0 °F 34.7 °F 37.4 °F 87% 29.86 in 4.0 mi South 10.4 mph - 0.03 in Rain Rain
7:55 AM 41.0 °F 35.8 °F 37.4 °F 87% 29.86 in 4.0 mi SSE 8.1 mph - 0.03 in Rain Light Rain
8:15 AM 41.0 °F 36.4 °F 37.4 °F 87% 29.82 in 4.0 mi ESE 6.9 mph - 0.02 in Rain Light Rain
8:35 AM 42.8 °F 38.0 °F 37.4 °F 81% 29.84 in 4.0 mi SSE 8.1 mph - 0.02 in   Overcast
8:55 AM 42.8 °F 38.0 °F 39.2 °F 87% 29.86 in 7.0 mi South 8.1 mph - 0.02 in Rain Light Rain
9:15 AM 42.8 °F 38.0 °F 37.4 °F 81% 29.83 in 4.0 mi SE 8.1 mph - N/A Rain Light Rain
9:35 AM 42.8 °F 38.0 °F 37.4 °F 81% 29.83 in 5.0 mi SE 8.1 mph - N/A Rain Light Rain
9:55 AM 42.8 °F 38.6 °F 39.2 °F 87% 29.83 in 7.0 mi SE 6.9 mph - N/A Rain Light Rain
10:15 AM 42.8 °F 39.3 °F 39.2 °F 87% 29.81 in 7.0 mi SE 5.8 mph - 0.01 in Rain Light Rain
10:35 AM 42.8 °F 38.0 °F 39.2 °F 87% 29.81 in 7.0 mi SSE 8.1 mph - 0.01 in Rain Light Rain
10:55 AM 44.6 °F 40.2 °F 39.2 °F 81% 29.81 in 7.0 mi SSE 8.1 mph - 0.01 in   Light Drizzle
11:15 AM 44.6 °F 41.4 °F 41.0 °F 87% 29.78 in 10.0 mi South 5.8 mph - 0.01 in   Overcast
11:35 AM 46.4 °F 42.9 °F 42.8 °F 87% 29.77 in 5.0 mi SSE 6.9 mph - 0.01 in   Overcast
11:55 AM 46.4 °F 42.9 °F 42.8 °F 87% - 4.0 mi SSE 6.9 mph - 0.01 in Rain Light Rain
12:15 PM 46.4 °F 42.4 °F 42.8 °F 87% - 4.0 mi SSE 8.1 mph - N/A Rain Light Rain
12:35 PM 46.4 °F 43.5 °F 42.8 °F 87% - 4.0 mi SE 5.8 mph - N/A   Overcast
12:55 PM 46.4 °F - 42.8 °F 87% - 4.0 mi Calm Calm - N/A Rain Light Rain
1:15 PM 48.2 °F - 44.6 °F 87% - 0.8 mi SSE 6.9 mph - N/A Rain Light Rain
1:35 PM 48.2 °F - 44.6 °F 87% - 0.5 mi SE 9.2 mph - 0.01 in Fog Fog
1:55 PM 50.0 °F - 44.6 °F 82% - 2.5 mi SSE 8.1 mph - 0.01 in   Haze
2:15 PM 50.0 °F - 46.4 °F 87% - 2.5 mi SSE 8.1 mph - N/A   Overcast
2:35 PM 51.8 °F - 46.4 °F 82% - 7.0 mi South 6.9 mph - N/A   Overcast
3:15 PM 51.8 °F - 48.2 °F 88% - 4.0 mi South 11.5 mph - N/A   Overcast
3:35 PM 51.8 °F - 48.2 °F 88% - 7.0 mi SSW 11.5 mph - N/A   Overcast
3:55 PM 51.8 °F - 48.2 °F 88% - 1.8 mi SSW 10.4 mph - N/A   Drizzle
4:15 PM 50.0 °F - 46.4 °F 87% - 2.0 mi West 12.7 mph - N/A Rain Heavy Rain
4:35 PM 48.2 °F - 44.6 °F 87% - 5.0 mi West 6.9 mph - N/A   Light Drizzle
4:55 PM 48.2 °F - 44.6 °F 87% - 5.0 mi West 8.1 mph - N/A   Overcast
5:15 PM 48.2 °F - 44.6 °F 87% - 7.0 mi West 8.1 mph - N/A   Overcast
5:35 PM 48.2 °F - 44.6 °F 87% - 7.0 mi West 11.5 mph - N/A   Overcast
5:55 PM 46.4 °F 42.4 °F 42.8 °F 87% - 10.0 mi West 8.1 mph - N/A   Overcast
6:15 PM 46.4 °F 40.4 °F 42.8 °F 87% - 10.0 mi West 13.8 mph - N/A   Overcast
6:35 PM 46.4 °F 40.4 °F 42.8 °F 87% 29.69 in 4.0 mi West 13.8 mph - N/A   Overcast
6:55 PM 44.6 °F 37.4 °F 42.8 °F 93% 29.67 in 5.0 mi West 16.1 mph 19.6 mph N/A   Overcast
7:15 PM 44.6 °F 37.4 °F 41.0 °F 87% - 7.0 mi West 16.1 mph - N/A   Overcast
7:35 PM 42.8 °F 34.3 °F 39.2 °F 87% - 10.0 mi WNW 19.6 mph 24.2 mph N/A   Overcast
7:55 PM 42.8 °F 33.8 °F 37.4 °F 81% - 10.0 mi WNW 21.9 mph 26.5 mph N/A   Overcast
8:15 PM 39.2 °F 28.3 °F 37.4 °F 93% - 7.0 mi West 25.3 mph 28.8 mph N/A   Overcast
8:35 PM 39.2 °F 29.8 °F 35.6 °F 87% 29.71 in 10.0 mi WNW 18.4 mph 28.8 mph N/A   Overcast
8:55 PM 39.2 °F 29.6 °F 35.6 °F 87% - 10.0 mi WNW 19.6 mph 27.6 mph N/A   Overcast
9:15 PM 37.4 °F 25.4 °F 35.6 °F 93% - 10.0 mi WNW 27.6 mph 33.4 mph N/A   Overcast
9:35 PM 37.4 °F 27.2 °F 35.6 °F 93% 29.76 in 10.0 mi WNW 19.6 mph - N/A   Overcast
9:55 PM 37.4 °F 27.8 °F 35.6 °F 93% - 10.0 mi WNW 17.3 mph 25.3 mph N/A   Overcast
10:15 PM 37.4 °F 27.8 °F 33.8 °F 87% - 10.0 mi WNW 17.3 mph 23.0 mph N/A   Overcast
10:35 PM 37.4 °F 26.4 °F 33.8 °F 87% - 10.0 mi WNW 23.0 mph 29.9 mph N/A   Overcast
10:55 PM 37.4 °F 26.1 °F 33.8 °F 87% - 10.0 mi WNW 24.2 mph - N/A   Overcast
11:15 PM 37.4 °F 27.2 °F 32.0 °F 81% 29.81 in 10.0 mi WNW 19.6 mph 27.6 mph N/A   Overcast
11:35 PM 37.4 °F 27.5 °F 30.2 °F 75% 29.81 in 10.0 mi WNW 18.4 mph 27.6 mph N/A   Overcast
11:55 PM 35.6 °F 24.5 °F 30.2 °F 81% 29.82 in 10.0 mi WNW 20.7 mph 24.2 mph N/A   Overcast